Time,TemperatureF,DewpointF,PressureIn,WindDirection,WindDirectionDegrees,WindSpeedMPH,WindSpeedGustMPH,Humidity,HourlyPrecipIn,Conditions,Clouds,dailyrainin,SoftwareType,DateUTC
2016-08-25 00:04:00,80.0,80.0,30.01,South,177,6.0,6.0,99,-99.99,,,-99.99,,2016-08-25 04:04:00,
2016-08-25 00:14:00,80.0,80.0,30.01,South,184,8.0,8.0,99,-99.99,,,-99.99,,2016-08-25 04:14:00,
2016-08-25 00:23:00,80.0,80.0,30.01,SSW,204,8.0,-999.0,99,-99.99,,,-99.99,,2016-08-25 04:23:00,
2016-08-25 00:44:00,80.0,80.0,30.02,SSW,201,2.0,4.0,100,-99.99,,,-99.99,,2016-08-25 04:44:00,
2016-08-25 01:07:00,80.0,80.0,30.02,South,169,6.0,6.0,100,-99.99,,,-99.99,,2016-08-25 05:07:00,
2016-08-25 01:17:00,80.0,80.0,30.02,South,169,6.0,6.0,100,-99.99,,,-99.99,,2016-08-25 05:17:00,
2016-08-25 01:28:00,80.0,80.0,30.02,SSE,165,6.0,6.0,100,-99.99,,,-99.99,,2016-08-25 05:28:00,
2016-08-25 01:47:00,79.0,79.0,30.02,SSW,205,6.0,6.0,100,-99.99,,,-99.99,,2016-08-25 05:47:00,
2016-08-25 01:59:00,79.0,79.0,30.02,SSW,203,6.0,6.0,100,-99.99,,,-99.99,,2016-08-25 05:59:00,
2016-08-25 02:07:00,79.0,79.0,30.03,West,260,3.0,5.0,100,-99.99,,,-99.99,,2016-08-25 06:07:00,
2016-08-25 02:14:00,79.0,79.0,30.03,SW,222,4.0,-999.0,100,-99.99,,,-99.99,,2016-08-25 06:14:00,
2016-08-25 02:25:00,79.0,79.0,30.03,SW,218,4.0,6.0,100,-99.99,,,-99.99,,2016-08-25 06:25:00,
2016-08-25 02:35:00,79.0,79.0,30.03,SE,146,1.0,5.0,100,-99.99,,,-99.99,,2016-08-25 06:35:00,
2016-08-25 02:46:00,79.0,79.0,30.03,SSW,197,5.0,5.0,100,-99.99,,,-99.99,,2016-08-25 06:46:00,
2016-08-25 03:05:00,79.0,79.0,30.03,SSW,200,5.0,0.0,100,-99.99,,,-99.99,,2016-08-25 07:05:00,
2016-08-25 03:15:00,79.0,79.0,30.04,WSW,249,5.0,5.0,100,-99.99,,,-99.99,,2016-08-25 07:15:00,
2016-08-25 03:25:00,79.0,79.0,30.04,SW,228,4.0,6.0,100,-99.99,,,-99.99,,2016-08-25 07:25:00,
2016-08-25 03:36:00,79.0,79.0,30.04,South,188,5.0,9.0,100,-99.99,,,-99.99,,2016-08-25 07:36:00,
2016-08-25 03:45:00,79.0,79.0,30.04,West,263,6.0,6.0,100,-99.99,,,-99.99,,2016-08-25 07:45:00,
2016-08-25 03:57:00,79.0,79.0,30.04,South,172,6.0,6.0,100,-99.99,,,-99.99,,2016-08-25 07:57:00,
2016-08-25 04:04:00,79.0,79.0,30.04,West,281,3.0,6.0,100,-99.99,,,-99.99,,2016-08-25 08:04:00,
2016-08-25 04:13:00,79.0,79.0,30.04,SSW,205,3.0,6.0,100,-99.99,,,-99.99,,2016-08-25 08:13:00,
2016-08-25 04:23:00,79.0,79.0,30.04,SW,214,0.0,6.0,100,-99.99,,,-99.99,,2016-08-25 08:23:00,
2016-08-25 04:46:00,78.0,78.0,30.05,SW,224,3.0,6.0,100,-99.99,,,-99.99,,2016-08-25 08:46:00,
2016-08-25 04:53:00,78.0,78.0,30.04,West,260,6.0,0.0,100,-99.99,,,-99.99,,2016-08-25 08:53:00,
2016-08-25 05:03:00,78.0,78.0,30.04,WSW,242,6.0,6.0,100,-99.99,,,-99.99,,2016-08-25 09:03:00,
2016-08-25 05:13:00,78.0,78.0,30.03,SW,226,3.0,5.0,100,-99.99,,,-99.99,,2016-08-25 09:13:00,
2016-08-25 05:23:00,78.0,78.0,30.03,West,263,1.0,5.0,100,-99.99,,,-99.99,,2016-08-25 09:23:00,
2016-08-25 05:34:00,78.0,78.0,30.03,SSW,210,3.0,6.0,100,-99.99,,,-99.99,,2016-08-25 09:34:00,
2016-08-25 05:44:00,77.0,77.0,30.03,SSE,150,2.0,0.0,100,-99.99,,,-99.99,,2016-08-25 09:44:00,
2016-08-25 05:54:00,77.0,77.0,30.03,SW,215,4.0,5.0,100,-99.99,,,-99.99,,2016-08-25 09:54:00,
2016-08-25 06:05:00,77.0,77.0,30.03,West,262,0.0,-999.0,100,-99.99,,,-99.99,,2016-08-25 10:05:00,
2016-08-25 06:24:00,77.0,77.0,30.03,West,266,3.0,6.0,100,-99.99,,,-99.99,,2016-08-25 10:24:00,
2016-08-25 06:34:00,77.0,77.0,30.03,South,179,5.0,5.0,100,-99.99,,,-99.99,,2016-08-25 10:34:00,
2016-08-25 06:47:00,77.0,77.0,30.03,South,191,0.0,0.0,100,-99.99,,,-99.99,,2016-08-25 10:47:00,
2016-08-25 06:58:00,77.0,77.0,30.03,SSE,163,0.0,0.0,100,-99.99,,,-99.99,,2016-08-25 10:58:00,
2016-08-25 07:07:00,77.0,77.0,30.03,SE,141,0.0,0.0,100,-99.99,,,-99.99,,2016-08-25 11:07:00,
2016-08-25 07:18:00,77.0,77.0,30.04,SW,219,0.0,0.0,100,-99.99,,,-99.99,,2016-08-25 11:18:00,
2016-08-25 07:25:00,76.0,76.0,30.04,East,97,0.0,0.0,100,-99.99,,,-99.99,,2016-08-25 11:25:00,
2016-08-25 07:36:00,76.0,76.0,30.04,ESE,118,0.0,0.0,100,-99.99,,,-99.99,,2016-08-25 11:36:00,
2016-08-25 07:54:00,76.0,76.0,30.04,SSW,204,0.0,0.0,100,-99.99,,,-99.99,,2016-08-25 11:54:00,
2016-08-25 08:06:00,76.0,76.0,30.04,SSW,204,0.0,0.0,100,-99.99,,,-99.99,,2016-08-25 12:06:00,
2016-08-25 08:15:00,76.0,76.0,30.05,South,176,4.0,0.0,100,-99.99,,,-99.99,,2016-08-25 12:15:00,